Location: Newark
(44.0167°N, 1.3500°E)
Time: 21:14:49
(UTC+00:00)

ISS - Visible Passes

Search period start: 17 October 2019 00:00
Search period end: 27 October 2019 00:00
Orbit: 411 x 421 km, 51.6° (Epoch: 17 October)

Date Brightness Start Highest point End Pass type
(mag) Time Alt. Az. Time Alt. Az. Time Alt. Az.
23 Oct -1.1 05:35:35 10° S 05:38:10 21° SE 05:40:45 10° E visible
24 Oct -0.7 04:48:18 10° SSE 04:49:47 12° SE 04:51:17 10° ESE visible
25 Oct -3.0 05:34:14 10° SW 05:37:31 52° SE 05:40:48 10° ENE visible
26 Oct -2.1 04:46:47 15° SSW 04:49:01 31° SE 04:52:03 10° ENE visible
